When you browse on this site, cookies collect data to enhance your experience and personalize the content and advertising you see.
Visit our Privacy Policy to learn more. By continuing to use the site, you agree to this use of cookies and data.
  • In Lithuania
  • List of Countries
  • For 7 days
  • Water Temperature
  • Weather Map
  • Weather Widgets
  • user-avatar
    Login

    Hourly Weather Atbara

    Today, 31 March, Tuesday

    Time Temperature Precipitation Wind Pressure Humidity
    00:00 +27°C° 0 mm 4 mps 726 mmHg 9%
    01:00 +27°C° 0 mm 4 mps 726 mmHg 10%
    02:00 +26°C° 0 mm 4 mps 725 mmHg 11%
    03:00 +25°C° 0 mm 4 mps 725 mmHg 14%
    04:00 +23°C° 0 mm 4 mps 725 mmHg 17%
    05:00 +22°C° 0 mm 3 mps 726 mmHg 20%
    06:00 +25°C° 0 mm 3 mps 726 mmHg 20%
    07:00 +28°C° 0 mm 3 mps 727 mmHg 20%
    08:00 +30°C° 0 mm 3 mps 727 mmHg 19%
    09:00 +34°C° 0 mm 4 mps 727 mmHg 15%
    10:00 +36°C° 0 mm 4 mps 728 mmHg 11%
    11:00 +40°C° 0 mm 5 mps 728 mmHg 7%
    12:00 +41°C° 0 mm 5 mps 727 mmHg 7%
    13:00 +42°C° 0 mm 6 mps 726 mmHg 6%
    14:00 +45°C° 0 mm 6 mps 725 mmHg 6%
    15:00 +44°C° 0 mm 6 mps 725 mmHg 6%
    16:00 +44°C° 0 mm 6 mps 725 mmHg 7%
    17:00 +42°C° 0 mm 6 mps 725 mmHg 7%
    18:00 +40°C° 0 mm 5 mps 725 mmHg 8%
    19:00 +37°C° 0 mm 5 mps 725 mmHg 10%
    20:00 +34°C° 0 mm 4 mps 725 mmHg 11%
    21:00 +33°C° 0 mm 4 mps 725 mmHg 12%
    22:00 +32°C° 0 mm 4 mps 726 mmHg 13%
    23:00 +30°C° 0 mm 4 mps 726 mmHg 13%

    Tomorrow, 1 April, Wednesday

    Time Temperature Precipitation Wind Pressure Humidity
    00:00 +29°C° 0 mm 3 mps 725 mmHg 15%
    01:00 +28°C° 0 mm 3 mps 725 mmHg 18%
    02:00 +26°C° 0 mm 2 mps 724 mmHg 20%
    03:00 +26°C° 0 mm 3 mps 724 mmHg 20%
    04:00 +26°C° 0 mm 3 mps 725 mmHg 20%
    05:00 +25°C° 0 mm 3 mps 725 mmHg 20%
    06:00 +28°C° 0 mm 3 mps 725 mmHg 17%
    07:00 +30°C° 0 mm 3 mps 726 mmHg 15%
    08:00 +34°C° 0 mm 3 mps 727 mmHg 12%
    09:00 +36°C° 0 mm 4 mps 727 mmHg 10%
    10:00 +40°C° 0 mm 5 mps 727 mmHg 8%
    11:00 +43°C° 0 mm 5 mps 727 mmHg 6%
    12:00 +45°C° 0 mm 5 mps 726 mmHg 6%
    13:00 +46°C° 0 mm 6 mps 725 mmHg 6%
    14:00 +47°C° 0 mm 6 mps 725 mmHg 6%
    15:00 +46°C° 0 mm 6 mps 724 mmHg 6%
    16:00 +46°C° 0 mm 6 mps 724 mmHg 6%
    17:00 +45°C° 0 mm 7 mps 724 mmHg 7%
    18:00 +42°C° 0 mm 6 mps 724 mmHg 8%
    19:00 +39°C° 0 mm 6 mps 725 mmHg 9%
    20:00 +36°C° 0 mm 6 mps 725 mmHg 10%
    21:00 +35°C° 0 mm 7 mps 725 mmHg 11%
    22:00 +35°C° 0 mm 7 mps 726 mmHg 12%
    23:00 +34°C° 0 mm 8 mps 726 mmHg 12%

    Day after tomorrow, 2 April, Thursday

    Time Temperature Precipitation Wind Pressure Humidity
    00:00 +33°C° 0 mm 7 mps 726 mmHg 13%
    01:00 +32°C° 0 mm 6 mps 725 mmHg 14%
    02:00 +30°C° 0 mm 6 mps 725 mmHg 15%
    03:00 +29°C° 0 mm 6 mps 725 mmHg 17%
    04:00 +28°C° 0 mm 5 mps 725 mmHg 20%
    05:00 +27°C° 0 mm 5 mps 725 mmHg 23%
    06:00 +29°C° 0 mm 6 mps 726 mmHg 23%
    07:00 +32°C° 0 mm 6 mps 726 mmHg 23%
    08:00 +34°C° 0 mm 6 mps 727 mmHg 24%
    09:00 +38°C° 0 mm 7 mps 727 mmHg 18%
    10:00 +41°C° 0 mm 7 mps 727 mmHg 13%
    11:00 +45°C° 0 mm 8 mps 727 mmHg 8%
    12:00 +45°C° 0 mm 8 mps 726 mmHg 7%
    13:00 +47°C° 0 mm 9 mps 725 mmHg 6%
    14:00 +47°C° 0 mm 9 mps 725 mmHg 6%
    15:00 +47°C° 0 mm 9 mps 724 mmHg 6%
    16:00 +45°C° 0 mm 9 mps 724 mmHg 7%
    17:00 +44°C° 0 mm 9 mps 724 mmHg 7%
    18:00 +41°C° 0 mm 8 mps 725 mmHg 8%
    19:00 +39°C° 0 mm 7 mps 725 mmHg 9%
    20:00 +36°C° 0 mm 6 mps 725 mmHg 10%
    21:00 +35°C° 0 mm 6 mps 726 mmHg 11%
    22:00 +33°C° 0 mm 5 mps 726 mmHg 12%
    23:00 +32°C° 0 mm 5 mps 726 mmHg 13%

    3 April, Friday

    Time Temperature Precipitation Wind Pressure Humidity
    00:00 +30°C° 0 mm 5 mps 725 mmHg 25%
    01:00 +28°C° 0 mm 4 mps 725 mmHg 36%
    02:00 +27°C° 0 mm 4 mps 725 mmHg 48%
    03:00 +26°C° 0 mm 4 mps 725 mmHg 49%
    04:00 +26°C° 0 mm 3 mps 725 mmHg 51%
    05:00 +25°C° 0 mm 3 mps 725 mmHg 52%
    06:00 +28°C° 0 mm 4 mps 725 mmHg 43%
    07:00 +30°C° 0 mm 5 mps 726 mmHg 33%
    08:00 +34°C° 0 mm 6 mps 727 mmHg 24%
    09:00 +38°C° 0 mm 6 mps 727 mmHg 19%
    10:00 +40°C° 0 mm 6 mps 727 mmHg 14%
    11:00 +44°C° 0 mm 7 mps 727 mmHg 9%
    12:00 +45°C° 0 mm 7 mps 726 mmHg 8%
    13:00 +46°C° 0 mm 7 mps 725 mmHg 7%
    14:00 +46°C° 0 mm 7 mps 724 mmHg 6%
    15:00 +46°C° 0 mm 7 mps 724 mmHg 6%
    16:00 +45°C° 0 mm 7 mps 724 mmHg 6%
    17:00 +44°C° 0 mm 7 mps 724 mmHg 6%
    18:00 +41°C° 0 mm 6 mps 724 mmHg 8%
    19:00 +39°C° 0 mm 6 mps 725 mmHg 9%
    20:00 +35°C° 0 mm 6 mps 725 mmHg 11%
    21:00 +34°C° 0 mm 6 mps 725 mmHg 12%
    22:00 +33°C° 0 mm 6 mps 725 mmHg 14%
    23:00 +30°C° 0 mm 6 mps 726 mmHg 15%

    4 April, Saturday

    Time Temperature Precipitation Wind Pressure Humidity
    00:00 +29°C° 0 mm 5 mps 725 mmHg 16%
    01:00 +28°C° 0 mm 5 mps 725 mmHg 17%
    02:00 +27°C° 0 mm 5 mps 725 mmHg 18%
    03:00 +27°C° 0 mm 5 mps 725 mmHg 17%
    04:00 +27°C° 0 mm 5 mps 725 mmHg 16%
    05:00 +27°C° 0 mm 5 mps 725 mmHg 15%
    06:00 +29°C° 0 mm 6 mps 725 mmHg 13%
    07:00 +33°C° 0 mm 7 mps 726 mmHg 10%
    08:00 +35°C° 0 mm 8 mps 726 mmHg 8%
    09:00 +39°C° 0 mm 8 mps 726 mmHg 7%
    10:00 +43°C° 0 mm 9 mps 726 mmHg 7%
    11:00 +45°C° 0 mm 9 mps 726 mmHg 6%
    12:00 +47°C° 0 mm 9 mps 725 mmHg 6%
    13:00 +48°C° 0 mm 9 mps 725 mmHg 5%
    14:00 +48°C° 0 mm 9 mps 724 mmHg 5%
    15:00 +48°C° 0 mm 9 mps 724 mmHg 5%
    16:00 +47°C° 0 mm 9 mps 724 mmHg 5%
    17:00 +45°C° 0 mm 9 mps 724 mmHg 5%
    18:00 +43°C° 0 mm 8 mps 724 mmHg 6%
    19:00 +39°C° 0 mm 7 mps 724 mmHg 7%
    20:00 +35°C° 0 mm 6 mps 724 mmHg 8%
    21:00 +34°C° 0 mm 6 mps 725 mmHg 9%
    22:00 +32°C° 0 mm 5 mps 725 mmHg 10%
    23:00 +29°C° 0 mm 5 mps 725 mmHg 11%

    5 April, Sunday

    Time Temperature Precipitation Wind Pressure Humidity
    00:00 +28°C° 0 mm 4 mps 725 mmHg 13%
    01:00 +27°C° 0 mm 4 mps 725 mmHg 14%
    02:00 +26°C° 0 mm 4 mps 724 mmHg 16%
    03:00 +26°C° 0 mm 4 mps 724 mmHg 16%
    04:00 +26°C° 0 mm 4 mps 725 mmHg 17%
    05:00 +25°C° 0 mm 3 mps 725 mmHg 18%
    06:00 +28°C° 0 mm 4 mps 725 mmHg 18%
    07:00 +30°C° 0 mm 5 mps 726 mmHg 19%
    08:00 +34°C° 0 mm 6 mps 726 mmHg 20%
    09:00 +36°C° 0 mm 6 mps 726 mmHg 18%
    10:00 +40°C° 0 mm 7 mps 726 mmHg 16%
    11:00 +43°C° 0 mm 7 mps 726 mmHg 14%
    12:00 +45°C° 0 mm 7 mps 725 mmHg 12%
    13:00 +46°C° 0 mm 7 mps 724 mmHg 10%
    14:00 +49°C° 0 mm 7 mps 723 mmHg 8%
    15:00 +47°C° 0 mm 7 mps 723 mmHg 8%
    16:00 +47°C° 0 mm 6 mps 723 mmHg 8%
    17:00 +47°C° 0 mm 6 mps 722 mmHg 8%
    18:00 +44°C° 0 mm 6 mps 723 mmHg 10%
    19:00 +41°C° 0 mm 6 mps 723 mmHg 13%
    20:00 +38°C° 0 mm 6 mps 723 mmHg 16%
    21:00 +36°C° 0 mm 6 mps 723 mmHg 24%
    22:00 +34°C° 0 mm 6 mps 724 mmHg 33%
    23:00 +32°C° 0 mm 5 mps 724 mmHg 42%
    Show more